Weather History for Carlsbad, NM

Change the Weather History Date:

Friday, August 30, 2013

  Actual Average Record
Temperature  
Mean Temperature 84 °F -  
Max Temperature 98 °F 90 °F 107 °F (2011)
Min Temperature 71 °F 64 °F 59 °F (2012)
Cooling Degree Days 20    
Growing Degree Days 34 (Base 50)    
Moisture  
Dew Point 50 °F    
Average Humidity 32    
Maximum Humidity 51    
Minimum Humidity 20    
Precipitation  
Precipitation 0.00 in - - ()
Sea Level Pressure  
Sea Level Pressure 29.89 in    
Wind  
Wind Speed 8 mph (SSE)    
Max Wind Speed 13 mph    
Max Gust Speed 21 mph    
Visibility 10 miles    
Events      
Averages and records for this station are not official NWS values.
T = Trace of Precipitation, MM = Missing Value Source: NWS Daily Summary

Daily Weather History Graph

Daily Weather History Graph

Search for Another Location

Airport:

Trip Planner

Search our weather history database for the weather conditions in past years. The results will help you decide how hot, cold, wet, or windy it might be!

Date:

Astronomy

Aug. 30, 2013 Rise Set
Actual Time 6:31 AM MDT 7:23 PM MDT
Civil Twilight 6:05 AM MDT 7:48 PM MDT
Nautical Twilight 5:36 AM MDT 8:18 PM MDT
Astronomical Twilight 5:05 AM MDT 8:48 PM MDT
Moon 1:21 AM MDT 3:31 PM MDT
Length of Visible Light 13h 42m
Length of Day
12h 52m
Waning Crescent, 28% of the Moon is Illuminated
Aug 30
Waning Crescent
Sep 5
New
Sep 12
First Quarter
Sep 19
Full
Sep 26
Last Quarter

Hourly Weather History & Observations

Time (MDT) Temp. Heat Index Dew Point Humidity Pressure Visibility Wind Dir Wind Speed Gust Speed Precip Events Conditions
12:53 AM 81.0 °F - 52.0 °F 36% 29.93 in 10.0 mi South 9.2 mph - N/A   Clear
1:53 AM 78.1 °F - 52.0 °F 40% 29.92 in 10.0 mi South 8.1 mph - N/A   Clear
2:53 AM 75.9 °F - 52.0 °F 43% 29.93 in 10.0 mi South 6.9 mph - N/A   Clear
3:53 AM 73.9 °F - 52.0 °F 46% 29.91 in 10.0 mi South 5.8 mph - N/A   Clear
4:53 AM 71.1 °F - 52.0 °F 51% 29.92 in 10.0 mi SSE 4.6 mph - N/A   Clear
5:53 AM 72.0 °F - 52.0 °F 49% 29.93 in 10.0 mi SE 5.8 mph - N/A   Clear
6:53 AM 71.1 °F - 52.0 °F 51% 29.95 in 10.0 mi SSE 5.8 mph - N/A   Clear
7:53 AM 75.9 °F - 54.0 °F 46% 29.96 in 10.0 mi SSE 4.6 mph - N/A   Clear
8:53 AM 82.0 °F 81.3 °F 54.0 °F 38% 29.96 in 10.0 mi SE 4.6 mph - N/A   Clear
9:53 AM 87.1 °F - 52.0 °F 30% 29.96 in 10.0 mi SSE 12.7 mph - N/A   Clear
10:53 AM 90.0 °F - 51.1 °F 26% 29.95 in 10.0 mi SSE 11.5 mph 19.6 mph N/A   Clear
11:53 AM 91.9 °F - 51.1 °F 25% 29.93 in 10.0 mi SE 9.2 mph 17.3 mph N/A   Clear
12:53 PM 93.9 °F - 51.1 °F 23% 29.90 in 10.0 mi South 11.5 mph 17.3 mph N/A   Clear
1:53 PM 95.0 °F 92.5 °F 53.1 °F 24% 29.88 in 10.0 mi SE 12.7 mph 20.7 mph N/A   Clear
2:53 PM 96.1 °F 93.5 °F 53.1 °F 23% 29.85 in 10.0 mi SSE 6.9 mph - N/A   Clear
3:53 PM 98.1 °F - 52.0 °F 21% 29.83 in 10.0 mi SSE 10.4 mph - N/A   Clear
4:53 PM 97.0 °F - 51.1 °F 21% 29.81 in 10.0 mi South 8.1 mph - N/A   Clear
5:53 PM 97.0 °F - 50.0 °F 20% 29.80 in 10.0 mi SE 8.1 mph - N/A   Clear
6:53 PM 93.9 °F - 46.9 °F 20% 29.80 in 10.0 mi SE 8.1 mph - N/A   Clear
7:53 PM 89.1 °F - 46.0 °F 22% 29.81 in 10.0 mi SSE 6.9 mph - N/A   Clear
8:53 PM 82.0 °F - 46.9 °F 29% 29.82 in 10.0 mi South 5.8 mph - N/A   Clear
9:53 PM 80.1 °F - 45.0 °F 29% 29.83 in 10.0 mi South 8.1 mph - N/A   Clear
10:53 PM 80.1 °F - 43.0 °F 27% 29.83 in 10.0 mi South 10.4 mph - N/A   Clear
11:53 PM 80.1 °F - 46.0 °F 30% 29.84 in 10.0 mi South 9.2 mph - N/A   Clear